New Roads False River Regiona, LA

7:10 PM CDT on July 18, 2019 (GMT -0500)
False River

Weather History for KHZR - May, 2019

Change the Weather History Date:

Thursday, May 16, 2019

  Actual Average (KBTR) Record (KBTR)
Temperature  
Mean Temperature 75 °F -  
Max Temperature 86 °F 84 °F 94 °F (1963)
Min Temperature 64 °F 63 °F 51 °F (1973)
Cooling Degree Days 10    
Growing Degree Days 25 (Base 50)    
Moisture  
Dew Point 66 °F    
Average Humidity 76    
Maximum Humidity 100    
Minimum Humidity 48    
Precipitation  
Precipitation 0.00 in - - ()
Sea Level Pressure  
Sea Level Pressure 30.02 in    
Wind  
Wind Speed 1 mph ()    
Max Wind Speed 9 mph    
Max Gust Speed -    
Visibility 9.3 miles    
Events      
Averages and records for this station are not official NWS values.
T = Trace of Precipitation, MM = Missing Value Source: Averaged Metar Reports

Daily Weather History Graph

Daily Weather History Graph

Search for Another Location

Airport or City:

Astronomy

May. 16, 2019 Rise Set
Actual Time 6:10 AM CDT 7:54 PM CDT
Civil Twilight 5:44 AM CDT 8:20 PM CDT
Nautical Twilight 5:12 AM CDT 8:52 PM CDT
Astronomical Twilight 4:38 AM CDT 9:26 PM CDT
Moon 5:47 PM CDT (5/16) 4:52 AM CDT (5/16)
Length of Visible Light 14h 36m
Length of Day
13h 43m
Waxing Gibbous, 94% of the Moon is Illuminated
May 16
Waxing Gibbous
May 18
Full
May 26
Last Quarter
Jun 3
New
Jun 10
First Quarter

Hourly Weather History & Observations

Time (CDT) Temp. Heat Index Dew Point Humidity Pressure Visibility Wind Dir Wind Speed Gust Speed Precip Events Conditions
12:15 AM 71.6 °F - 66.2 °F 83% 30.04 in 10.0 mi Calm Calm - N/A   Clear
1:14 AM 69.8 °F - 66.2 °F 88% 30.04 in 10.0 mi Calm Calm - N/A   Clear
2:16 AM 69.8 °F - 66.2 °F 88% 30.02 in 10.0 mi Calm Calm - N/A   Clear
2:36 AM 69.8 °F - 66.2 °F 88% 30.02 in 10.0 mi Calm Calm - N/A   Clear
2:55 AM 69.8 °F - 66.2 °F 88% 30.02 in 10.0 mi Calm Calm - N/A   Clear
3:16 AM 68.0 °F - 66.2 °F 94% 30.02 in 10.0 mi Calm Calm - N/A   Clear
3:56 AM 66.2 °F - 66.2 °F 100% 30.02 in 10.0 mi Calm Calm - N/A   Clear
4:55 AM 66.2 °F - 66.2 °F 100% 30.03 in 5.0 mi Calm Calm - N/A   Clear
5:16 AM 66.2 °F - 66.2 °F 100% 30.03 in 4.0 mi Calm Calm - N/A   Clear
5:36 AM 64.4 °F - 64.4 °F 100% 30.03 in 4.0 mi Calm Calm - N/A   Clear
6:36 AM 64.4 °F - 64.4 °F 100% 30.06 in 5.0 mi Calm Calm - N/A   Clear
7:36 AM 68.0 °F - 68.0 °F 100% 30.07 in 5.0 mi Calm Calm - N/A   Clear
7:55 AM 69.8 °F - 69.8 °F 100% 30.08 in 10.0 mi Calm Calm - N/A   Clear
9:17 AM 73.4 °F - 69.8 °F 88% 30.09 in 10.0 mi Calm Calm - N/A   Clear
9:56 AM 75.2 °F - 68.0 °F 78% 30.09 in 10.0 mi Calm Calm - N/A   Clear
10:15 AM 77.0 °F - 66.2 °F 69% 30.09 in 10.0 mi Calm Calm - N/A   Clear
10:55 AM 78.8 °F - 68.0 °F 69% 30.08 in 10.0 mi Calm Calm - N/A   Clear
11:15 AM 78.8 °F - 69.8 °F 74% 30.08 in 10.0 mi NE 3.5 mph - N/A   Clear
11:36 AM 80.6 °F 82.7 °F 66.2 °F 61% 30.08 in 10.0 mi NNE 3.5 mph - N/A   Clear
12:15 PM 80.6 °F 82.7 °F 66.2 °F 61% 30.07 in 10.0 mi ENE 4.6 mph - N/A   Mostly Cloudy
1:35 PM 82.4 °F 83.9 °F 64.4 °F 54% 30.04 in 10.0 mi SE 3.5 mph - N/A   Clear
3:15 PM 82.4 °F 83.9 °F 64.4 °F 54% 30.01 in 10.0 mi SSE 4.6 mph - N/A   Scattered Clouds
3:35 PM 84.2 °F 85.6 °F 64.4 °F 51% 30.00 in 10.0 mi SE 5.8 mph - N/A   Scattered Clouds
3:56 PM 84.2 °F 85.6 °F 64.4 °F 51% 30.00 in 10.0 mi SSE 4.6 mph - N/A   Clear
4:55 PM 86.0 °F 87.3 °F 64.4 °F 48% 29.98 in 10.0 mi SSE 5.8 mph - N/A   Scattered Clouds
5:35 PM 86.0 °F 87.3 °F 64.4 °F 48% 29.97 in 10.0 mi SSE 9.2 mph - N/A   Mostly Cloudy
6:36 PM 84.2 °F 85.6 °F 64.4 °F 51% 29.97 in 10.0 mi South 5.8 mph - N/A   Clear
6:55 PM 82.4 °F 83.4 °F 62.6 °F 51% 29.97 in 10.0 mi South 4.6 mph - N/A   Clear
7:55 PM 80.6 °F 82.3 °F 64.4 °F 58% 29.97 in 10.0 mi South 3.5 mph - N/A   Clear
8:15 PM 78.8 °F - 64.4 °F 61% 29.97 in 10.0 mi South 3.5 mph - N/A   Clear
8:36 PM 78.8 °F - 64.4 °F 61% 29.97 in 10.0 mi South 3.5 mph - N/A   Clear
8:55 PM 78.8 °F - 64.4 °F 61% 29.97 in 10.0 mi Calm Calm - N/A   Clear
9:37 PM 73.4 °F - 68.0 °F 83% 29.99 in 10.0 mi Calm Calm - N/A   Clear
10:15 PM 71.6 °F - 69.8 °F 94% 30.00 in 10.0 mi Calm Calm - N/A   Clear
10:36 PM 71.6 °F - 68.0 °F 88% 30.01 in 10.0 mi Calm Calm - N/A   Clear
10:57 PM 73.4 °F - 66.2 °F 78% 30.01 in 10.0 mi Calm Calm - N/A   Clear
11:15 PM 71.6 °F - 66.2 °F 83% 30.01 in 10.0 mi SSW 3.5 mph - N/A   Clear
11:36 PM 71.6 °F - 66.2 °F 83% 30.01 in 10.0 mi Calm Calm - N/A   Clear
11:56 PM 71.6 °F - 66.2 °F 83% 30.01 in 10.0 mi Calm Calm - N/A   Clear